Simultaneous Nadir Overpasses (SNOs) Predictions

Prediction of SNOs between GOES-16 and TERRA Satellite Orbit:

Table of predicted SNOs for the next 14.0 days since TLE Epoch: 3/28/2020
Index Date Time (GOES-16) GOES-16 Lat,Lon TERRA Lat,Lon Distance(km) Time Diff (sec)
1 03/28/2020 03:24:03 0.02, -75.13 0.42, -73.22 216.95 80
2 03/28/2020 15:42:38 -0.03, -75.14 0.69, -78.37 367.70 80
3 03/30/2020 15:33:06 -0.03, -75.14 0.04, -75.41 30.90 80
4 04/01/2020 15:18:14 -0.03, -75.14 -0.62, -72.46 306.04 80
5 04/02/2020 03:42:17 0.03, -75.13 -0.54, -77.63 285.68 80
6 04/04/2020 03:27:25 0.03, -75.13 0.13, -74.68 51.76 80
7 04/06/2020 03:15:12 0.03, -75.14 0.73, -71.71 389.89 80
8 04/06/2020 15:39:08 -0.03, -75.16 0.32, -76.87 194.21 80
9 04/08/2020 15:24:15 -0.01, -75.18 -0.29, -73.91 145.13 80
10 04/09/2020 03:48:18 0.00, -75.17 -0.86, -79.08 445.74 80
11 04/10/2020 15:12:02 -0.01, -75.20 -0.91, -70.94 484.59 80




NCC Satellite Simultaneous Nadir Overpasses (SNOs) Prediction Service
